Time,TemperatureF,DewpointF,PressureIn,WindDirection,WindDirectionDegrees,WindSpeedMPH,WindSpeedGustMPH,Humidity,HourlyPrecipIn,Conditions,Clouds,dailyrainin,SoftwareType,DateUTC
2013-09-13 00:14:00,62.2,56.0,29.92,NNW,347,1.0,3.0,79,0.00,,,0.00,weatherlink.com 1.10,2013-09-13 04:14:00,
2013-09-13 00:29:00,61.3,55.0,29.93,WSW,240,1.0,2.0,81,0.00,,,0.00,weatherlink.com 1.10,2013-09-13 04:29:00,
2013-09-13 00:44:00,60.8,55.0,29.93,NW,321,0.0,3.0,82,0.00,,,0.00,weatherlink.com 1.10,2013-09-13 04:44:00,
2013-09-13 00:59:00,60.1,55.0,29.94,West,276,0.0,1.0,84,0.00,,,0.00,weatherlink.com 1.10,2013-09-13 04:59:00,
2013-09-13 01:14:00,59.9,55.0,29.94,NW,326,0.0,3.0,84,0.00,,,0.00,weatherlink.com 1.10,2013-09-13 05:14:00,
2013-09-13 01:29:00,59.4,55.0,29.94,NNE,15,0.0,2.0,85,0.00,,,0.00,weatherlink.com 1.10,2013-09-13 05:29:00,
2013-09-13 01:44:00,59.0,55.0,29.95,NW,321,1.0,2.0,86,0.00,,,0.00,weatherlink.com 1.10,2013-09-13 05:44:00,
2013-09-13 01:59:00,58.4,55.0,29.95,North,360,0.0,4.0,87,0.00,,,0.00,weatherlink.com 1.10,2013-09-13 05:59:00,
2013-09-13 02:14:00,58.0,54.0,29.95,NNE,18,1.0,2.0,87,0.00,,,0.00,weatherlink.com 1.10,2013-09-13 06:14:00,
2013-09-13 02:29:00,57.7,54.0,29.96,West,278,0.0,1.0,87,0.00,,,0.00,weatherlink.com 1.10,2013-09-13 06:29:00,
2013-09-13 02:44:00,57.1,54.0,29.96,NW,314,0.0,2.0,88,0.00,,,0.00,weatherlink.com 1.10,2013-09-13 06:44:00,
2013-09-13 02:59:00,56.7,53.0,29.96,SW,232,0.0,1.0,88,0.00,,,0.00,weatherlink.com 1.10,2013-09-13 06:59:00,
2013-09-13 03:14:00,56.3,53.0,29.96,NW,314,1.0,2.0,89,0.00,,,0.00,weatherlink.com 1.10,2013-09-13 07:14:00,
2013-09-13 03:29:00,56.3,53.0,29.97,NNE,30,1.0,3.0,89,0.00,,,0.00,weatherlink.com 1.10,2013-09-13 07:29:00,
2013-09-13 03:44:00,56.0,53.0,29.97,East,86,1.0,4.0,89,0.00,,,0.00,weatherlink.com 1.10,2013-09-13 07:44:00,
2013-09-13 03:59:00,55.9,53.0,29.97,NE,49,1.0,3.0,89,0.00,,,0.00,weatherlink.com 1.10,2013-09-13 07:59:00,
2013-09-13 04:14:00,55.6,52.0,29.97,ENE,58,0.0,4.0,88,0.00,,,0.00,weatherlink.com 1.10,2013-09-13 08:14:00,
2013-09-13 04:29:00,55.1,52.0,29.98,North,5,0.0,4.0,89,0.00,,,0.00,weatherlink.com 1.10,2013-09-13 08:29:00,
2013-09-13 04:44:00,54.6,52.0,29.98,WSW,241,0.0,1.0,90,0.00,,,0.00,weatherlink.com 1.10,2013-09-13 08:44:00,
2013-09-13 04:59:00,54.1,52.0,29.98,WNW,302,0.0,1.0,91,0.00,,,0.00,weatherlink.com 1.10,2013-09-13 08:59:00,
2013-09-13 05:14:00,53.8,52.0,29.98,NNE,30,0.0,2.0,92,0.00,,,0.00,weatherlink.com 1.10,2013-09-13 09:14:00,
2013-09-13 05:29:00,53.7,51.0,29.98,ESE,121,0.0,3.0,91,0.00,,,0.00,weatherlink.com 1.10,2013-09-13 09:29:00,
2013-09-13 05:45:00,53.3,51.0,29.98,ENE,63,0.0,2.0,91,0.00,,,0.00,weatherlink.com 1.10,2013-09-13 09:45:00,
2013-09-13 06:00:00,53.0,50.0,29.99,NNE,13,0.0,2.0,90,0.00,,,0.00,weatherlink.com 1.10,2013-09-13 10:00:00,
2013-09-13 06:15:00,52.7,50.0,29.99,NE,54,0.0,1.0,90,0.00,,,0.00,weatherlink.com 1.10,2013-09-13 10:15:00,
2013-09-13 06:30:00,52.3,49.0,29.99,WSW,253,0.0,2.0,89,0.00,,,0.00,weatherlink.com 1.10,2013-09-13 10:30:00,
2013-09-13 06:45:00,51.9,49.0,29.99,ENE,68,0.0,2.0,89,0.00,,,0.00,weatherlink.com 1.10,2013-09-13 10:45:00,
2013-09-13 07:00:00,51.0,48.0,30.00,NE,53,0.0,0.0,90,0.00,,,0.00,weatherlink.com 1.10,2013-09-13 11:00:00,
2013-09-13 07:15:00,50.3,48.0,30.01,West,266,0.0,0.0,92,0.00,,,0.00,weatherlink.com 1.10,2013-09-13 11:15:00,
2013-09-13 07:30:00,50.0,48.0,30.01,West,267,0.0,0.0,93,0.00,,,0.00,weatherlink.com 1.10,2013-09-13 11:30:00,
2013-09-13 07:45:00,50.3,48.0,30.02,NNW,345,0.0,4.0,93,0.00,,,0.00,weatherlink.com 1.10,2013-09-13 11:45:00,
2013-09-13 08:00:00,54.1,51.0,30.02,NW,311,0.0,1.0,89,0.00,,,0.00,weatherlink.com 1.10,2013-09-13 12:00:00,
2013-09-13 08:15:00,57.4,51.0,30.02,NW,310,0.0,1.0,80,0.00,,,0.00,weatherlink.com 1.10,2013-09-13 12:15:00,
2013-09-13 08:30:00,57.4,51.0,30.02,WNW,284,0.0,1.0,79,0.00,,,0.00,weatherlink.com 1.10,2013-09-13 12:30:00,
2013-09-13 08:45:00,57.2,51.0,30.02,West,264,3.0,4.0,79,0.00,,,0.00,weatherlink.com 1.10,2013-09-13 12:45:00,
2013-09-13 09:00:00,57.3,50.0,30.02,North,356,4.0,8.0,77,0.00,,,0.00,weatherlink.com 1.10,2013-09-13 13:00:00,
2013-09-13 09:15:00,57.5,50.0,30.02,NW,315,2.0,7.0,75,0.00,,,0.00,weatherlink.com 1.10,2013-09-13 13:15:00,
2013-09-13 09:30:00,57.8,49.0,30.03,North,360,3.0,8.0,73,0.00,,,0.00,weatherlink.com 1.10,2013-09-13 13:30:00,
2013-09-13 09:45:00,59.4,49.0,30.03,NE,42,2.0,8.0,69,0.00,,,0.00,weatherlink.com 1.10,2013-09-13 13:45:00,
2013-09-13 10:00:00,58.9,48.0,30.04,NNW,340,3.0,10.0,67,0.00,,,0.00,weatherlink.com 1.10,2013-09-13 14:00:00,
2013-09-13 10:15:00,59.0,48.0,30.04,NE,37,3.0,8.0,67,0.00,,,0.00,weatherlink.com 1.10,2013-09-13 14:15:00,
2013-09-13 10:30:00,60.0,49.0,30.04,NE,41,5.0,8.0,67,0.00,,,0.00,weatherlink.com 1.10,2013-09-13 14:30:00,
2013-09-13 10:45:00,60.7,48.0,30.04,ENE,77,4.0,12.0,63,0.00,,,0.00,weatherlink.com 1.10,2013-09-13 14:45:00,
2013-09-13 11:00:00,61.1,48.0,30.05,East,91,2.0,10.0,63,0.00,,,0.00,weatherlink.com 1.10,2013-09-13 15:00:00,
2013-09-13 11:15:00,61.4,47.0,30.05,NNE,25,8.0,10.0,59,0.00,,,0.00,weatherlink.com 1.10,2013-09-13 15:15:00,
2013-09-13 11:30:00,61.4,46.0,30.05,ENE,77,4.0,10.0,58,0.00,,,0.00,weatherlink.com 1.10,2013-09-13 15:30:00,
2013-09-13 11:45:00,61.9,48.0,30.05,North,359,4.0,8.0,60,0.00,,,0.00,weatherlink.com 1.10,2013-09-13 15:45:00,
2013-09-13 12:00:00,62.9,46.0,30.05,NNW,333,7.0,11.0,54,0.00,,,0.00,weatherlink.com 1.10,2013-09-13 16:00:00,
2013-09-13 12:15:00,62.2,47.0,30.05,West,278,4.0,10.0,58,0.00,,,0.00,weatherlink.com 1.10,2013-09-13 16:15:00,
2013-09-13 12:30:00,63.5,47.0,30.04,North,5,2.0,13.0,56,0.00,,,0.00,weatherlink.com 1.10,2013-09-13 16:30:00,
2013-09-13 12:45:00,64.9,47.0,30.05,NNW,331,2.0,10.0,52,0.00,,,0.00,weatherlink.com 1.10,2013-09-13 16:45:00,
2013-09-13 13:00:00,62.9,46.0,30.05,NNW,331,4.0,7.0,54,0.00,,,0.00,weatherlink.com 1.10,2013-09-13 17:00:00,
2013-09-13 13:15:00,63.8,46.0,30.05,NW,316,2.0,6.0,52,0.00,,,0.00,weatherlink.com 1.10,2013-09-13 17:15:00,
2013-09-13 13:30:00,62.6,46.0,30.05,North,354,2.0,10.0,56,0.00,,,0.00,weatherlink.com 1.10,2013-09-13 17:30:00,
2013-09-13 13:45:00,63.1,47.0,30.05,NNE,32,5.0,7.0,56,0.00,,,0.00,weatherlink.com 1.10,2013-09-13 17:45:00,
2013-09-13 14:00:00,62.9,47.0,30.05,ENE,58,3.0,8.0,57,0.00,,,0.00,weatherlink.com 1.10,2013-09-13 18:00:00,
2013-09-13 14:15:00,64.8,47.0,30.04,ENE,66,2.0,8.0,52,0.00,,,0.00,weatherlink.com 1.10,2013-09-13 18:15:00,
2013-09-13 14:30:00,65.6,48.0,30.04,NNE,22,4.0,6.0,54,0.00,,,0.00,weatherlink.com 1.10,2013-09-13 18:30:00,
2013-09-13 14:45:00,63.9,46.0,30.03,North,8,1.0,10.0,53,0.00,,,0.00,weatherlink.com 1.10,2013-09-13 18:45:00,
2013-09-13 15:00:00,64.5,45.0,30.03,WNW,297,3.0,9.0,50,0.00,,,0.00,weatherlink.com 1.10,2013-09-13 19:00:00,
2013-09-13 15:15:00,63.9,46.0,30.03,NNE,24,5.0,8.0,52,0.00,,,0.00,weatherlink.com 1.10,2013-09-13 19:15:00,
2013-09-13 15:30:00,63.3,45.0,30.02,NW,312,2.0,10.0,51,0.00,,,0.00,weatherlink.com 1.10,2013-09-13 19:30:00,
2013-09-13 15:45:00,64.2,47.0,30.02,North,8,3.0,6.0,53,0.00,,,0.00,weatherlink.com 1.10,2013-09-13 19:45:00,
2013-09-13 16:00:00,65.2,45.0,30.02,NE,36,1.0,9.0,49,0.00,,,0.00,weatherlink.com 1.10,2013-09-13 20:00:00,
2013-09-13 16:16:00,66.2,46.0,30.02,NNE,25,5.0,11.0,49,0.00,,,0.00,weatherlink.com 1.10,2013-09-13 20:16:00,
2013-09-13 16:31:00,66.8,45.0,30.02,WNW,296,6.0,10.0,46,0.00,,,0.00,weatherlink.com 1.10,2013-09-13 20:31:00,
2013-09-13 16:46:00,66.0,45.0,30.02,ESE,111,1.0,7.0,47,0.00,,,0.00,weatherlink.com 1.10,2013-09-13 20:46:00,
2013-09-13 17:01:00,66.2,45.0,30.02,West,281,4.0,9.0,47,0.00,,,0.00,weatherlink.com 1.10,2013-09-13 21:01:00,
2013-09-13 17:16:00,66.2,46.0,30.02,West,270,3.0,10.0,48,0.00,,,0.00,weatherlink.com 1.10,2013-09-13 21:16:00,
2013-09-13 17:31:00,66.3,46.0,30.02,North,356,1.0,7.0,49,0.00,,,0.00,weatherlink.com 1.10,2013-09-13 21:31:00,
2013-09-13 17:46:00,65.1,45.0,30.02,WNW,297,2.0,7.0,48,0.00,,,0.00,weatherlink.com 1.10,2013-09-13 21:46:00,
2013-09-13 18:01:00,65.7,45.0,30.02,North,349,4.0,8.0,48,0.00,,,0.00,weatherlink.com 1.10,2013-09-13 22:01:00,
2013-09-13 18:16:00,65.6,45.0,30.02,NW,319,2.0,6.0,48,0.00,,,0.00,weatherlink.com 1.10,2013-09-13 22:16:00,
2013-09-13 18:32:00,65.1,45.0,30.02,North,11,1.0,6.0,48,0.00,,,0.00,weatherlink.com 1.10,2013-09-13 22:32:00,
2013-09-13 18:46:00,64.4,44.0,30.02,NE,46,0.0,6.0,48,0.00,,,0.00,weatherlink.com 1.10,2013-09-13 22:46:00,
2013-09-13 19:01:00,64.0,44.0,30.02,North,353,2.0,7.0,49,0.00,,,0.00,weatherlink.com 1.10,2013-09-13 23:01:00,
2013-09-13 19:16:00,63.2,44.0,30.03,NE,49,1.0,7.0,50,0.00,,,0.00,weatherlink.com 1.10,2013-09-13 23:16:00,
2013-09-13 19:31:00,61.6,45.0,30.03,NNE,16,0.0,1.0,54,0.00,,,0.00,weatherlink.com 1.10,2013-09-13 23:31:00,
2013-09-13 19:46:00,60.3,45.0,30.03,North,357,0.0,2.0,57,0.00,,,0.00,weatherlink.com 1.10,2013-09-13 23:46:00,
2013-09-13 20:01:00,59.0,45.0,30.04,NNE,15,0.0,2.0,60,0.00,,,0.00,weatherlink.com 1.10,2013-09-14 00:01:00,
2013-09-13 20:16:00,57.3,45.0,30.04,SSE,155,0.0,0.0,63,0.00,,,0.00,weatherlink.com 1.10,2013-09-14 00:16:00,
2013-09-13 20:31:00,55.6,46.0,30.04,SSE,155,0.0,0.0,69,0.00,,,0.00,weatherlink.com 1.10,2013-09-14 00:31:00,
2013-09-13 20:46:00,54.3,45.0,30.05,SSE,155,0.0,0.0,71,0.00,,,0.00,weatherlink.com 1.10,2013-09-14 00:46:00,
2013-09-13 21:01:00,53.7,45.0,30.05,SSE,155,0.0,0.0,73,0.00,,,0.00,weatherlink.com 1.10,2013-09-14 01:01:00,
2013-09-13 21:16:00,52.7,45.0,30.05,SSE,155,0.0,0.0,75,0.00,,,0.00,weatherlink.com 1.10,2013-09-14 01:16:00,
2013-09-13 21:31:00,53.0,45.0,30.06,SSE,155,0.0,0.0,75,0.00,,,0.00,weatherlink.com 1.10,2013-09-14 01:31:00,
2013-09-13 21:46:00,53.6,45.0,30.07,NNE,16,1.0,4.0,73,0.00,,,0.00,weatherlink.com 1.10,2013-09-14 01:46:00,
2013-09-13 22:01:00,53.7,45.0,30.07,East,81,4.0,4.0,73,0.00,,,0.00,weatherlink.com 1.10,2013-09-14 02:01:00,
2013-09-13 22:16:00,53.5,45.0,30.07,SSE,168,1.0,4.0,73,0.00,,,0.00,weatherlink.com 1.10,2013-09-14 02:16:00,
2013-09-13 22:31:00,53.2,45.0,30.08,North,3,1.0,3.0,73,0.00,,,0.00,weatherlink.com 1.10,2013-09-14 02:31:00,
2013-09-13 22:46:00,52.8,45.0,30.08,North,354,1.0,4.0,74,0.00,,,0.00,weatherlink.com 1.10,2013-09-14 02:46:00,
2013-09-13 23:01:00,52.1,45.0,30.08,NNW,347,1.0,3.0,76,0.00,,,0.00,weatherlink.com 1.10,2013-09-14 03:01:00,
2013-09-13 23:16:00,51.5,45.0,30.08,WSW,257,0.0,3.0,77,0.00,,,0.00,weatherlink.com 1.10,2013-09-14 03:16:00,
2013-09-13 23:31:00,50.8,44.0,30.09,North,358,0.0,2.0,78,0.00,,,0.00,weatherlink.com 1.10,2013-09-14 03:31:00,
2013-09-13 23:46:00,50.3,44.0,30.08,NNW,347,1.0,2.0,79,0.00,,,0.00,weatherlink.com 1.10,2013-09-14 03:46:00,